map of LFOC home
LFOC - Airport
Location
City:  Châteaudun, Centre, France
ICAO:LFOC

Details
Type:Airport (Aerodrome, Airfield)
Use:Public/Civil
Latitude:48°03'28"N (48.057875)
Longitude:1°22'46"E (1.379442)
Elevation:433 ft (132 m)
Variation:0.35°E (WMM2015 magnetic declination)
0.13° annual change
Runways:1
Longest:7552 × 148 ft (2302 × 45 m)

Time
Time Zone:UTC+1 (DST+2)
Local Time:

Weather
METAR:LFOC 151530Z AUTO 30018KT 9999 -RA BKN013 BKN021 OVC033 03/02 Q0999 TEMPO 4000 -SHRA BKN015TCU BECMG 24015G25KT
TAF:LFOC 151400Z 1515/1615 24015G25KT CAVOK PROB40
TEMPO 1515/1519 4000 -SHRA BKN015TCU PROB30
TEMPO 1515/1517 28020G35KT 3000 TSGS BKN012CB PROB40 1522/1609 BKN010
BECMG 1604/1606 31010KT

Related Locations
Nearby:
Farthest:CHT: 12120 mi / 19505 km
Waitangi [Tuuta], CIT, NZ

Find:

   beyond  
but within

Other Information
Maps:
NOTAMs:
Links:
Sources:

  
flag of France
flag of Centre
  

Sectional Chart

Flight Planning
at skyvector.com

Satellite Image

Google Maps Satellite view

 

Copyright © 2004-2017 Karl L. Swartz. All rights reserved.
The Great Circle Mapper name and logo are trademarks of the Great Circle Mapper.
All other trademarks mentioned herein belong to their respective owners.
Please see credits for attibutions and further copyright information.

  Follow gcmap on Facebook Follow gcmap on Twitter Follow gcmap on Google+ GCmap on LinkedIn

hCard Microformat

Geo Microformat